Starlink 4264

operational
NORAD ID: 52993 Int'l Des: 2022-076 Owner: SPXS Country: US Constellation: starlink
LEOCIRCULAR

About Starlink 4264

Description loading...

Live Position

Loading 3D Globe...

Upcoming Passes

Altitude History

Altitude vs Time

uPlot chart will show altitude changes over time

Two-Line Element Set

1 52993U 22076H 25350.30785361 .00001253 00000-0 96805-4 0 9996
2 52993 53.2181 108.4347 0001247 79.1222 280.9910 15.08842561190250
Epoch: Dec 16, 2025 • Age: 21 hours

Current Status

Altitude 542.0 km
Velocity 7.60 km/s
Sub-Earth Point 37.16°N, 11.28°W
Launch Date Jul 7, 2022
Age 3.4 years
Type internet

Technical Details

Classification Payload
Mass 297.00 kg
Dry Mass 275.00 kg
Total Mass 297.00 kg
Length 0.20 m
Diameter 2.80 m
Span 9.00 m
Shape Box + pan
Manufacturer SPXS
Bus Type Starlink
Phase Status In Orbit
Owner/State SPXS/US

Large Constellations

Loading constellations...